[[{"header":{"parameterUnit":"m.s-1","parameterCategory":1,"la1":30.2991,"la2":30.254,"lo1":-89.0895,"lo2":-89.0444,"dy":0.0017,"dx":0.0017,"nx":28,"ny":28,"refTime":"2023-08-28T09:00:00:Z","depth":0,"parameterNumber":2,"parameterNumberName":"U-component_of_WINDS"},"data":[0,0,0,0,0,0,0,0,0,0,0,0,0,0,0,0,0,0,0,0,0,0,0,0,0,0,0,0,0,0,0,0,0,0,0,0,0,0,0,0,0,0,0,0,0,0,0,0,0,0,0,0,0,0,0,0,0,0,-2.099,-2.0988,0,-2.0861,-2.0859,-2.0858,-2.0718,-2.0716,-2.0714,-2.0712,-2.058,-2.0578,-2.0577,0,0,0,0,0,0,0,0,0,0,0,0,0,-2.1116,-2.1115,-2.099,-2.0988,-2.0987,-2.0861,-2.0859,-2.0858,-2.0718,-2.0715,-2.0713,-2.0711,-2.058,-2.0578,-2.0576,0,0,0,0,0,0,0,0,0,0,0,0,0,-2.1032,-2.1114,-2.099,-2.0902,-2.0893,-2.0862,-2.0859,-2.0857,-2.0718,-2.0715,-2.0712,-2.071,-2.0581,-2.0578,-2.0576,-2.0622,0,0,-2.0569,-2.0568,0,0,0,0,0,0,0,0,-2.1037,-2.1028,-2.0916,-2.0908,-2.0898,-2.0802,-2.0855,-2.0778,-2.0719,-2.0785,-2.0712,-2.0708,-2.0656,-2.0647,-2.063,-2.0615,-2.061,-2.0568,-2.0567,-2.0566,-2.0565,0,0,0,0,0,0,0,-2.1043,-2.1032,-2.0939,-2.0915,-2.0904,-2.0869,-2.0854,-2.084,-2.0739,-2.0779,-2.0768,-2.0755,-2.065,-2.0633,-2.0626,-2.0608,-2.0568,-2.0566,-2.0565,-2.0564,-2.0627,-2.063,0,0,0,0,0,0,-2.1062,-2.1038,-2.0943,-2.0935,-2.0961,-2.0869,-2.0852,-2.0836,-2.0739,-2.0721,-2.0758,-2.0749,-2.0638,-2.0629,-2.0621,-2.0669,-2.0566,-2.0564,-2.0562,-2.0624,-2.0627,-2.0631,0,0,0,0,0,0,-2.1065,-2.1055,-2.0948,-2.0984,-2.0967,-2.087,-2.0853,-2.0835,-2.0817,-2.0723,-2.0704,-2.0758,-2.0635,-2.0624,-2.0623,-2.0662,-2.0562,-2.056,-2.062,-2.0625,-2.0629,-2.0766,0,0,0,0,0,0,-2.107,-2.1057,-2.1073,-2.0985,-2.0966,-2.0953,-2.0856,-2.0835,-2.0813,-2.08,-2.0718,-2.0701,-2.0632,-2.0627,-2.0621,-2.0657,-2.0558,-2.0616,-2.0622,-2.0628,-2.0757,-2.0775,-2.0789,0,0,0,0,0,-2.1075,-2.1116,-2.1074,-2.1064,-2.0984,-2.0955,-2.0944,-2.0864,-2.0817,-2.0832,-2.0772,-2.0704,-2.0659,-2.0628,-2.0619,-2.0656,-2.0613,-2.062,-2.0627,-2.075,-2.0771,-2.0789,0,0,0,0,0,0,-2.121,-2.1103,-2.1055,-2.1069,-2.1023,-2.0932,-2.0948,-2.0888,-2.0854,-2.0843,-2.0745,-2.0727,-2.0739,-2.0697,-2.0664,-2.0696,-2.0627,-2.0632,-2.0723,-2.0742,-2.0758,-2.0768,-2.0556,0,0,0,0,0,-2.1242,-2.1227,-2.1134,-2.1155,-2.1135,-2.1046,-2.1031,-2.0973,-2.092,-2.09,-2.0839,-2.0791,-2.0766,-2.0752,-2.0723,-2.0751,-2.0732,-2.0772,-2.0788,-2.0801,-2.0808,-2.0821,-2.0838,-2.0654,-2.0654,-2.0654,0,0,-2.1307,-2.1246,-2.1243,-2.1181,-2.1138,-2.1126,-2.103,-2.1021,-2.1011,-2.0898,-2.0894,-2.0848,-2.0788,-2.0802,-2.0805,-2.0768,-2.0855,-2.081,-2.0822,-2.0821,-2.083,-2.0848,-2.0864,-2.0659,-2.0658,-2.0657,0,0,-2.1419,-2.1371,-2.1385,-2.1344,-2.128,-2.1222,-2.1226,-2.1144,-2.111,-2.1104,-2.1019,-2.1007,-2.0965,-2.0927,-2.0902,-2.1003,-2.094,-2.0996,-2.108,-2.1095,-2.1109,-2.1122,-2.1159,-2.1174,-2.1003,-2.1003,-2.1003,0,-2.1507,-2.1486,-2.1399,-2.1396,-2.1372,-2.127,-2.1284,-2.1248,-2.1179,-2.1166,-2.1125,-2.1072,-2.1024,-2.1029,-2.1054,-2.1037,-2.1039,-2.1005,-2.1114,-2.1126,-2.1136,-2.1171,-2.1185,-2.101,-2.101,-2.1009,-2.1008,0,-2.1599,-2.1585,-2.1604,-2.1541,-2.1519,-2.1524,-2.144,-2.1428,-2.1373,-2.1319,-2.1316,-2.1255,-2.1214,-2.1211,-2.1156,-2.1209,-2.1188,-2.1132,-2.106,-2.1162,-2.1194,-2.1206,-2.1021,-2.1018,-2.1016,-2.1014,0,0,-2.1791,-2.1682,-2.169,-2.1661,-2.1585,-2.1573,-2.1575,-2.1535,-2.1528,-2.1484,-2.1484,-2.1453,-2.1401,-2.1373,-2.1314,-2.1326,-2.1413,-2.1269,-2.1266,-2.1299,-2.1469,-2.1513,-2.153,-2.137,-2.1373,-2.1374,-2.1475,0,-2.1891,-2.1887,-2.1811,-2.1829,-2.1817,-2.1721,-2.1723,-2.1677,-2.1627,-2.161,-2.1554,-2.1535,-2.1467,-2.145,-2.1458,-2.1401,-2.1446,-2.1392,-2.1371,-2.1371,-2.139,-2.1545,-2.159,-2.1688,-2.1486,-2.1488,-2.149,0,-2.2006,-2.1971,-2.1989,-2.1914,-2.1906,-2.1909,-2.1867,-2.1851,-2.1798,-2.1761,-2.1732,-2.1665,-2.1662,-2.1595,-2.1591,-2.1556,-2.1543,-2.1514,-2.1515,-2.1511,-2.1437,-2.1547,-2.1717,-2.1733,-2.1508,-2.1506,-2.1505,0,-2.2147,-2.2104,-2.2109,-2.2087,-2.2,-2.2004,-2.1968,-2.1912,-2.1894,-2.1858,-2.1845,-2.181,-2.179,-2.1765,-2.1691,-2.1648,-2.1697,-2.1622,-2.1667,-2.1669,-2.1682,-2.1682,-2.1854,-2.1672,-2.1672,-2.1672,-2.1671,0,-2.2267,-2.2282,-2.2172,-2.2175,-2.219,-2.2102,-2.2119,-2.2074,-2.2025,-2.2019,-2.1933,-2.193,-2.1831,-2.1817,-2.1759,-2.1766,-2.1758,-2.1729,-2.1713,-2.1737,-2.1741,-2.1727,-2.1719,-2.1675,-2.1674,-2.1674,-2.1673,0,-2.2427,-2.2353,-2.2353,-2.2271,-2.2251,-2.2266,-2.2196,-2.2196,-2.2142,-2.2136,-2.2129,-2.2044,-2.2023,-2.1947,-2.1906,-2.1867,-2.1894,-2.1863,-2.1912,-2.1902,-2.1952,-2.1949,-2.2122,-2.2141,-2.1947,-2.1949,-2.195,0,-2.2509,-2.2518,-2.2438,-2.2428,-2.2396,-2.2381,-2.2362,-2.2277,-2.2262,-2.2203,-2.2211,-2.2183,-2.2156,-2.2127,-2.2063,-2.2032,-2.2001,-2.2064,-2.1996,-2.202,-2.2004,-2.2005,-2.2006,-2.2079,-2.2081,-2.2083,-2.2085,0,-2.2662,-2.2626,-2.2603,-2.2568,-2.2549,-2.2517,-2.248,-2.2477,-2.2382,-2.2369,-2.2347,-2.2326,-2.2286,-2.226,-2.222,-2.2183,-2.212,-2.2107,-2.2116,-2.2141,-2.217,-2.2157,-2.1954,-2.2104,-2.2102,-2.21,-2.2099,-2.2099,-2.2786,-2.2791,-2.2736,-2.2714,-2.2678,-2.2646,-2.2643,-2.259,-2.2569,-2.253,-2.2482,-2.2466,-2.2414,-2.2353,-2.2322,-2.2309,-2.2274,-2.2286,-2.229,-2.2295,-2.2307,-2.2172,-2.2301,-2.2301,-2.23,-2.2299,-2.2299,0,-2.2937,-2.2897,-2.2878,-2.283,-2.2813,-2.2755,-2.2711,-2.2701,-2.2689,-2.2646,-2.2622,-2.2598,-2.2573,-2.2508,-2.2477,-2.2479,-2.245,-2.2474,-2.2474,-2.2467,-2.234,-2.2336,-2.2499,-2.2499,-2.2499,-2.2499,-2.2499,-2.2499,-2.3013,-2.3019,-2.2977,-2.2965,-2.2925,-2.291,-2.289,-2.2861,-2.2827,-2.2804,-2.2783,-2.2741,-2.2689,-2.2655,-2.263,-2.2611,-2.2604,-2.2639,-2.2612,-2.2494,-2.2475,-2.2457,-2.2453,-2.2638,-2.2638,-2.2739,-2.274,-2.2741]},{"header":{"parameterUnit":"m.s-1","parameterCategory":1,"la1":30.2991,"la2":30.254,"lo1":-89.0895,"lo2":-89.0444,"dy":0.0017,"dx":0.0017,"nx":28,"ny":28,"refTime":"2023-08-28T09:00:00:Z","depth":0,"parameterNumber":3,"parameterNumberName":"V-component_of_WINDS"},"data":[0,0,0,0,0,0,0,0,0,0,0,0,0,0,0,0,0,0,0,0,0,0,0,0,0,0,0,0,0,0,0,0,0,0,0,0,0,0,0,0,0,0,0,0,0,0,0,0,0,0,0,0,0,0,0,0,0,0,1.4272,1.4272,0,1.4287,1.4287,1.4287,1.4306,1.4307,1.4307,1.4307,1.4321,1.4321,1.4321,0,0,0,0,0,0,0,0,0,0,0,0,0,1.4259,1.4259,1.4272,1.4272,1.4272,1.4287,1.4287,1.4287,1.4306,1.4307,1.4307,1.4307,1.4321,1.4321,1.4321,0,0,0,0,0,0,0,0,0,0,0,0,0,1.4268,1.4259,1.4272,1.4283,1.4285,1.4287,1.4287,1.4287,1.4306,1.4307,1.4307,1.4307,1.4321,1.4321,1.4321,1.4313,0,0,1.4322,1.4322,0,0,0,0,0,0,0,0,1.4267,1.4268,1.4281,1.4283,1.4284,1.4295,1.4288,1.4296,1.4306,1.4298,1.4307,1.4308,1.4312,1.4313,1.4315,1.4314,1.4314,1.4322,1.4322,1.4322,1.4322,0,0,0,0,0,0,0,1.4267,1.4268,1.4278,1.4282,1.4283,1.4288,1.429,1.4289,1.4302,1.4299,1.43,1.4302,1.4313,1.4315,1.4315,1.4315,1.4322,1.4322,1.4322,1.4322,1.4308,1.4308,0,0,0,0,0,0,1.4265,1.4267,1.4277,1.4278,1.4277,1.4288,1.429,1.4291,1.4302,1.4304,1.4301,1.4302,1.4314,1.4315,1.4316,1.4307,1.4322,1.4322,1.4322,1.4309,1.4308,1.4308,0,0,0,0,0,0,1.4264,1.4265,1.4277,1.4273,1.4275,1.4287,1.4289,1.4291,1.4293,1.4304,1.4307,1.4301,1.4315,1.4316,1.4314,1.4308,1.4322,1.4322,1.4309,1.4308,1.4308,1.4289,0,0,0,0,0,0,1.4264,1.4265,1.4262,1.4273,1.4275,1.4275,1.4288,1.4291,1.4293,1.4295,1.4304,1.4306,1.4315,1.4314,1.4314,1.4308,1.4322,1.431,1.4309,1.4308,1.429,1.4288,1.4286,0,0,0,0,0,1.4263,1.4256,1.4262,1.4263,1.4272,1.4274,1.4275,1.4286,1.4293,1.429,1.4297,1.4306,1.4309,1.4313,1.4314,1.4308,1.431,1.4309,1.4308,1.4291,1.4288,1.4286,0,0,0,0,0,0,1.4243,1.4257,1.4264,1.426,1.4266,1.4277,1.4274,1.4282,1.4286,1.4287,1.43,1.4302,1.4298,1.4303,1.4308,1.4301,1.4311,1.431,1.4298,1.4295,1.4293,1.4291,1.4323,0,0,0,0,0,1.4238,1.4239,1.4252,1.4247,1.425,1.4261,1.4263,1.427,1.4277,1.4279,1.4286,1.4292,1.4294,1.4295,1.4297,1.4291,1.4294,1.4288,1.4285,1.4284,1.4282,1.428,1.4277,1.4304,1.4304,1.4304,0,0,1.4228,1.4236,1.4236,1.4243,1.4248,1.4249,1.4263,1.4263,1.4264,1.4279,1.4278,1.4283,1.429,1.4286,1.4285,1.429,1.4276,1.4282,1.4281,1.428,1.4278,1.4276,1.4273,1.4303,1.4304,1.4304,0,0,1.4209,1.4216,1.4212,1.4218,1.4226,1.4234,1.4234,1.4244,1.4249,1.4248,1.426,1.426,1.4264,1.4268,1.4271,1.4256,1.4264,1.4256,1.4244,1.4241,1.4239,1.4237,1.4231,1.4229,1.4255,1.4255,1.4255,0,1.4195,1.4197,1.421,1.4209,1.4212,1.4227,1.4224,1.4228,1.4237,1.4238,1.4244,1.4249,1.4255,1.4252,1.4249,1.4251,1.425,1.4255,1.4238,1.4237,1.4235,1.423,1.4228,1.4254,1.4254,1.4254,1.4254,0,1.4179,1.418,1.4177,1.4185,1.4188,1.4186,1.4198,1.42,1.4208,1.4215,1.4214,1.4222,1.4226,1.4227,1.4234,1.4225,1.4228,1.4236,1.4246,1.4231,1.4226,1.4225,1.4252,1.4253,1.4253,1.4253,0,0,1.4147,1.4163,1.4162,1.4166,1.4177,1.4178,1.4177,1.4182,1.4183,1.4189,1.4188,1.4191,1.4199,1.4202,1.421,1.4208,1.4195,1.4216,1.4217,1.4212,1.4186,1.4179,1.4177,1.4201,1.4201,1.4201,1.4185,0,1.413,1.4129,1.4141,1.4137,1.4138,1.4153,1.4153,1.4159,1.4166,1.4168,1.4176,1.4178,1.4188,1.419,1.4189,1.4197,1.419,1.4198,1.42,1.42,1.4197,1.4174,1.4167,1.4152,1.4183,1.4183,1.4183,0,1.4109,1.4114,1.4111,1.4123,1.4124,1.4123,1.4129,1.4131,1.4139,1.4144,1.4148,1.4158,1.4158,1.4168,1.4168,1.4174,1.4175,1.4179,1.4179,1.4179,1.419,1.4173,1.4148,1.4145,1.418,1.418,1.4181,0,1.4085,1.4092,1.409,1.4094,1.4108,1.4107,1.4112,1.4121,1.4124,1.4129,1.4131,1.4136,1.4138,1.4142,1.4153,1.4159,1.4151,1.4162,1.4155,1.4155,1.4152,1.4152,1.4126,1.4154,1.4154,1.4154,1.4155,0,1.4064,1.4061,1.408,1.4079,1.4076,1.4091,1.4087,1.4095,1.4102,1.4103,1.4117,1.4117,1.4132,1.4134,1.4142,1.4141,1.4142,1.4146,1.4148,1.4144,1.4144,1.4145,1.4146,1.4154,1.4154,1.4154,1.4154,0,1.4036,1.4049,1.4048,1.4062,1.4066,1.4063,1.4075,1.4075,1.4083,1.4084,1.4085,1.4099,1.4102,1.4114,1.4119,1.4125,1.4121,1.4125,1.4118,1.4119,1.4111,1.4112,1.4085,1.4082,1.4112,1.4112,1.4112,0,1.4021,1.402,1.4034,1.4036,1.4041,1.4044,1.4047,1.4061,1.4064,1.4073,1.4072,1.4076,1.408,1.4085,1.4095,1.41,1.4104,1.4094,1.4105,1.4101,1.4103,1.4103,1.4103,1.4092,1.4091,1.4091,1.4091,0,1.3994,1.4,1.4004,1.4011,1.4015,1.402,1.4027,1.4027,1.4043,1.4046,1.405,1.4053,1.406,1.4064,1.407,1.4076,1.4086,1.4088,1.4086,1.4082,1.4077,1.4079,1.4111,1.4088,1.4088,1.4088,1.4088,1.4089,1.3971,1.3971,1.3981,1.3985,1.3992,1.3998,1.3999,1.4008,1.4012,1.4019,1.4027,1.403,1.4039,1.4049,1.4054,1.4056,1.4062,1.406,1.4059,1.4058,1.4056,1.4078,1.4058,1.4058,1.4058,1.4058,1.4058,0,1.3944,1.3952,1.3956,1.3965,1.3968,1.3979,1.3987,1.3989,1.3992,1.3999,1.4004,1.4008,1.4013,1.4024,1.403,1.4029,1.4034,1.403,1.403,1.4031,1.4051,1.4052,1.4026,1.4026,1.4026,1.4026,1.4026,1.4026,1.393,1.3929,1.3938,1.3941,1.3949,1.3952,1.3956,1.3961,1.3968,1.3973,1.3977,1.3985,1.3994,1.4,1.4005,1.4008,1.4009,1.4004,1.4008,1.4027,1.403,1.4032,1.4033,1.4004,1.4004,1.3988,1.3988,1.3988]}]]